This is the latest recevied weather packets stored in our database for station/object WD0REW. If no packets are shown the sender has not sent any weather packets the latest 10 day(s).
| Time | Temp. | Humidity | Pressure | Rain* | Wind** | Luminosity | Snow |
|---|---|---|---|---|---|---|---|
| 1777421589 | 16.11° C | 93% | 1012.4 hPa | 6.1 mm | - | 10 W/m² | - |
| 1777421285 | 16.11° C | 93% | 1012.6 hPa | 11.94 mm | - | 8 W/m² | - |
| 1777420981 | 16.67° C | 92% | 1012.5 hPa | 4.83 mm | - | 9 W/m² | - |
| 1777420678 | 16.67° C | 93% | 1012.4 hPa | 0 mm | - | 8 W/m² | - |
| 1777420374 | 16.67° C | 93% | 1012.4 hPa | 0 mm | - | 8 W/m² | - |
| 1777420070 | 16.67° C | 92% | 1011.9 hPa | 0 mm | - | 21 W/m² | - |
| 1777419767 | 16.67° C | 91% | 1011.7 hPa | 0 mm | - | 7 W/m² | - |
| 1777419464 | 16.67° C | 90% | 1011.8 hPa | 0 mm | - | 7 W/m² | - |
| 1777419163 | 16.67° C | 91% | 1012.3 hPa | 0 mm | - | 15 W/m² | - |
| 1777418858 | 16.67° C | 90% | 1011.8 hPa | 0 mm | - | 32 W/m² | - |
| 1777418555 | 16.67° C | 90% | 1011.8 hPa | 0 mm | - | 102 W/m² | - |
| 1777418251 | 16.67° C | 90% | 1011.6 hPa | 0 mm | - | 59 W/m² | - |
| 1777417947 | 16.67° C | 92% | 1011.4 hPa | 0 mm | - | 94 W/m² | - |
| 1777417643 | 16.67° C | 93% | 1011.3 hPa | 0 mm | - | 147 W/m² | - |
| 1777417338 | 16.67° C | 92% | 1011.8 hPa | 0 mm | - | 48 W/m² | - |
| 1777417036 | 16.67° C | 92% | 1011.4 hPa | 0 mm | - | 33 W/m² | - |
| 1777416731 | 16.67° C | 92% | 1012.2 hPa | 0 mm | - | 8 W/m² | - |
| 1777416426 | 16.67° C | 91% | 1011.5 hPa | 0 mm | - | 21 W/m² | - |
| 1777416122 | 16.67° C | 90% | 1011.7 hPa | 0 mm | - | 32 W/m² | - |
| 1777415816 | 16.67° C | 89% | 1011.3 hPa | 0 mm | - | 31 W/m² | - |
| 1777415512 | 16.67° C | 87% | 1010.8 hPa | 0 mm | - | 43 W/m² | - |
| 1777415208 | 16.67° C | 89% | 1010.6 hPa | 0 mm | - | 105 W/m² | - |
| 1777414903 | 16.67° C | 89% | 1010.3 hPa | 0 mm | - | 89 W/m² | - |
| 1777414602 | 16.67° C | 90% | 1009.8 hPa | 0 mm | - | 70 W/m² | - |
| 1777414298 | 16.11° C | 90% | 1010.2 hPa | 0 mm | - | 91 W/m² | - |
* Rain latest hour (hover to see other rain measurements)
** Current wind speed in m/s (hover to see current wind gust speed)